SCP
0 0 0 0 0 0 0 0 0 0 1 1 2 2 2 1 1 2 2 2 1 1 1 1 2 3 3 3 2 2 2 2 2 2 2 2 1 2 2 2 2 2 1 1
0 0 0 0 0 0 0 0 0 0 1 2 2 2 2 2 1 1 2 2 1 1 1 2 2 3 3 3 3 2 2 2 2 2 2 1 1 1 1 2 2 2 1 1
0 0 0 0 0 0 0 0 1 1 1 2 2 2 2 1 1 2 2 2 1 1 1 2 3 3 3 3 3 3 2 2 2 1 1 1 1 1 1 1 1 1 1 1
0 0 0 0 0 0 0 0 1 1 1 1 2 2 2 1 2 2 2 2 1 1 1 2 3 3 3 3 3 3 3 2 2 1 1 1 1 1 1 1 1 1 1 1
0 0 0 0 0 0 0 0 1 1 1 1 2 1 1 2 2 2 2 2 1 1 2 2 2 2 2 2 2 3 3 3 2 2 1 1 1 1 1 1 1 1 1 1
1 1 0 0 0 0 0 1 1 1 1 2 2 2 2 2 3 3 3 2 2 2 2 2 2 2 2 2 2 2 3 2 2 1 1 1 1 1 1 1 1 1 1 1
1 1 1 1 1 1 1 1 1 1 2 2 2 2 2 2 2 3 3 2 2 2 2 2 2 1 1 1 1 2 2 2 2 1 1 1 1 1 1 1 1 1 1 1
1 1 1 1 1 2 2 2 2 2 2 2 2 2 3 3 3 3 2 2 2 2 2 2 2 1 1 1 1 1 1 1 1 1 2 2 2 2 1 1 1 1 1 1
1 1 1 1 2 2 2 2 2 2 2 2 3 3 3 3 3 2 2 2 2 2 2 2 1 1 1 1 1 1 1 1 1 1 2 2 2 2 2 1 1 1 1 1
1 1 1 1 2 2 3 2 2 2 2 3 3 4 4 4 4 3 2 2 2 2 2 1 1 1 1 1 1 1 1 1 1 1 2 2 2 2 2 1 1 1 2 2
1 1 1 1 2 2 2 2 2 2 2 2 3 3 4 5 4 3 3 3 3 3 2 1 1 1 1 1 1 1 0 0 0 1 1 2 2 2 2 1 1 1 2 2
1 1 1 1 1 2 2 2 2 1 1 1 2 2 3 4 4 4 4 4 4 3 2 2 1 1 1 1 1 1 1 0 0 0 1 1 2 2 1 1 0 0 1 1
1 1 1 1 1 1 1 1 1 1 1 1 1 1 1 2 3 4 5 6 5 3 2 2 1 1 1 1 1 1 1 1 0 0 0 1 1 2 1 1 0 0 0 0
1 1 1 1 1 1 1 1 1 1 1 1 1 1 1 1 2 3 4 5 4 3 3 2 2 1 1 1 1 1 1 0 0 0 0 0 1 1 1 1 1 0 0 0
0 1 1 1 1 1 1 1 1 1 1 1 1 1 1 1 1 2 2 3 3 3 2 2 2 2 1 1 1 1 0 0 0 0 0 0 0 1 1 1 1 1 1 1
0 1 1 1 1 1 0 0 0 0 1 1 1 1 1 1 1 1 1 1 1 2 1 1 1 1 1 2 1 1 1 0 0 0 0 0 0 0 0 0 1 1 1 1
0 0 0 1 0 0 0 0 0 0 0 0 1 1 1 1 1 1 1 1 0 0 0 0 0 1 1 1 1 1 1 0 0 0 0 0 0 0 0 0 0 1 2 2
0 0 0 0 0 0 0 0 0 0 0 0 0 0 0 1 1 1 1 1 0 0 0 0 0 0 0 1 1 1 1 0 0 0 0 0 0 0 0 0 0 1 1 1
0 0 0 0 0 0 0 0 0 0 0 0 0 0 0 0 1 1 1 1 1 0 0 0 0 0 0 0 0 0 0 0 0 0 0 0 0 0 0 0 0 0 1 1
0 0 0 0 0 0 0 0 0 0 0 0 0 0 0 0 1 1 1 1 1 1 0 0 0 0 0 0 0 0 0 0 0 0 0 0 0 0 0 0 0 0 0 0
0 0 0 0 0 0 0 0 0 0 0 0 0 0 0 0 0 1 1 1 1 1 1 0 0 0 0 0 0 0 0 0 0 0 0 0 0 0 0 0 0 0 0 0
0 0 0 0 0 0 0 0 0 0 0 0 0 0 0 0 0 0 0 0 0 0 0 0 0 0 0 0 0 0 0 0 0 0 0 0 0 0 0 0 0 0 0 0
0 0 0 0 0 0 0 0 0 0 0 0 0 0 0 0 0 0 0 0 0 0 0 0 0 0 0 1 1 1 0 0 0 0 0 0 0 0 0 0 0 0 0 0
0 0 0 0 0 0 0 0 0 0 0 0 0 0 0 0 0 0 0 0 0 0 0 0 0 0 0 1 1 1 1 0 0 0 0 0 0 0 0 0 0 0 0 0
0 0 0 0 0 0 0 0 0 0 0 0 0 0 0 0 0 0 0 0 0 0 0 0 0 0 0 0 1 1 1 1 0 0 0 1 0 1 1 1 0 0 0 0
0 0 0 0 0 0 0 0 1 1 1 0 0 0 0 0 0 0 0 0 0 0 0 0 0 0 0 0 0 0 0 1 1 1 1 1 0 0 1 1 0 0 0 0
0 0 0 0 0 0 0 0 1 1 1 1 0 0 0 0 0 0 0 0 0 0 0 0 0 0 0 0 0 0 0 0 1 1 1 1 0 0 1 1 0 0 0 0
Wind_Speed
7 5 5 6 8 9 10 10 10 8 6 4 2 2 3 3 3 3 3 3 3 2 2 2 2 2 2 2 3 3 4 4 3 3 3 3 3 3 3 2 2 2 2 2
8 7 6 7 8 8 9 9 9 8 6 1 1 2 3 4 4 3 3 2 2 2 1 1 1 1 1 2 2 3 3 3 3 3 3 3 2 2 2 2 1 1 2 2
8 7 8 10 7 7 6 6 7 8 3 1 2 3 4 4 4 4 3 3 2 2 1 0 0 1 1 2 2 3 3 3 3 3 3 3 3 2 2 2 2 1 1 2
6 7 10 1 0 3 4 3 3 2 1 1 1 2 3 4 4 3 3 2 2 2 1 0 1 1 1 2 3 3 3 3 3 3 3 2 2 2 2 2 2 2 2 2
6 8 6 3 1 2 5 4 1 1 0 1 1 3 4 3 2 3 2 2 2 2 2 1 1 1 1 2 2 3 3 3 3 3 3 3 2 2 2 2 2 2 2 2
6 8 6 2 1 4 5 4 2 0 1 2 3 3 2 2 2 2 2 2 2 2 2 2 1 1 2 2 2 2 3 3 3 3 3 3 3 3 2 2 3 2 2 2
7 6 1 4 3 2 4 2 3 0 2 3 3 1 2 4 3 3 2 2 2 2 2 2 1 2 2 2 2 2 2 2 3 3 3 3 3 2 2 3 2 3 2 3
4 6 1 5 2 2 4 4 2 1 1 2 1 2 4 4 4 3 3 2 2 2 2 2 1 2 2 1 1 1 2 2 3 3 3 3 3 3 3 3 3 4 3 3
2 2 4 3 4 4 3 3 2 2 1 0 1 2 3 4 3 3 3 2 2 2 2 2 1 2 2 1 1 1 1 1 2 3 3 3 4 4 3 3 3 3 3 3
0 3 3 4 5 5 4 4 3 2 1 1 1 1 2 2 3 3 3 2 2 2 2 2 1 2 1 1 1 2 2 1 2 3 3 3 3 3 3 3 3 3 3 3
0 2 2 4 5 5 5 4 3 2 2 1 1 1 1 2 2 2 2 1 2 2 2 2 2 2 2 2 2 2 2 2 2 2 2 3 3 2 3 2 2 3 3 2
2 3 3 3 4 5 4 4 3 2 2 1 1 1 1 1 2 2 2 1 1 2 2 2 2 2 2 2 3 3 3 3 3 2 2 3 3 3 1 2 3 3 3 4
3 4 4 4 4 4 4 4 3 2 1 1 1 1 1 1 1 1 1 1 1 1 1 2 2 2 2 2 3 3 4 3 3 3 3 3 3 3 3 3 4 5 5 5
3 2 3 3 4 4 4 3 2 2 2 1 1 1 1 1 1 1 0 0 1 1 1 1 2 2 2 3 3 4 4 4 4 4 4 4 4 4 4 4 4 4 6 8
4 4 4 4 4 4 4 3 2 2 2 2 1 1 1 1 1 1 1 1 1 2 2 2 2 3 3 3 4 4 4 3 3 4 5 4 4 4 5 5 5 4 4 5
5 4 4 4 4 4 4 3 3 3 3 2 1 1 1 0 0 0 1 1 2 2 2 3 3 3 4 4 4 4 4 4 5 5 5 5 5 5 4 4 4 4 5 4
4 5 5 5 5 5 4 4 4 4 3 2 2 1 1 1 1 1 1 2 3 3 3 3 3 4 4 4 5 4 4 3 5 6 5 5 4 5 4 4 4 5 5 3
4 4 5 5 5 5 4 4 4 4 3 3 2 1 1 1 2 2 2 2 3 3 2 3 3 4 4 4 4 5 4 3 4 4 4 4 4 5 5 5 5 5 4 3
4 4 4 5 5 6 4 4 4 4 3 2 2 2 2 2 2 3 3 3 3 3 3 3 3 5 5 4 4 5 5 4 3 3 4 4 4 5 4 4 4 4 4 3
6 5 5 5 5 6 5 4 3 3 3 3 3 3 3 3 3 3 3 4 3 3 3 3 4 4 4 4 5 5 5 5 4 4 4 4 4 4 4 4 4 4 4 4
7 7 6 6 6 6 5 4 3 3 3 3 3 3 3 3 3 3 3 3 2 3 3 2 4 4 4 4 6 6 5 5 4 4 4 4 4 4 4 4 4 4 4 4
8 7 7 7 6 5 4 4 4 3 3 3 3 4 4 4 4 3 3 3 3 2 3 3 3 3 4 6 6 6 5 4 4 4 4 4 4 4 4 4 4 4 4 4
7 8 7 7 6 5 5 4 3 3 3 4 4 4 5 4 4 3 3 2 2 2 4 3 3 3 5 6 6 6 5 5 4 4 4 4 4 4 4 5 4 4 4 3
7 7 7 6 6 5 5 4 3 3 4 4 4 4 4 4 3 3 3 1 1 3 4 1 1 3 6 6 5 5 5 4 4 5 5 5 4 4 4 4 4 4 3 4
6 6 6 6 5 4 4 4 4 4 4 3 4 4 4 3 3 3 3 3 2 3 4 2 4 5 6 5 5 5 4 4 4 5 5 5 5 4 4 4 3 3 3 3
6 5 5 5 5 4 4 3 3 3 4 4 3 3 3 3 3 3 3 3 4 4 4 3 2 3 4 4 4 5 5 4 4 4 5 5 5 4 4 3 4 3 3 3
5 4 4 4 4 4 4 4 4 4 4 4 4 4 3 3 2 2 3 3 3 3 3 3 3 3 4 4 4 4 4 4 4 4 4 3 3 3 3 4 4 3 3 3
Wind_Direction
264 278 243 239 235 235 240 254 264 268 263 265 232 199 172 158 150 144 141 136 130 127 132 156 168 173 185 198 192 189 183 182 181 184 195 200 199 197 195 194 198 196 203 210
247 245 242 249 247 245 248 254 259 266 269 325 99 179 172 166 163 160 155 150 138 136 144 172 184 195 195 202 191 184 181 183 179 181 185 187 189 184 178 183 199 207 224 215
244 239 236 237 240 240 246 255 259 263 275 130 173 181 173 169 167 166 163 160 155 159 173 211 261 241 234 216 189 182 181 184 186 184 185 189 192 181 181 193 200 219 244 236
242 229 237 202 218 238 241 249 280 299 351 188 204 184 169 168 170 169 166 157 153 160 166 224 221 208 234 208 193 190 187 190 189 185 191 190 192 192 195 200 211 218 236 241
237 233 225 176 177 244 240 230 326 286 105 100 109 159 157 145 163 162 160 154 158 161 164 181 195 189 213 207 196 203 196 197 199 199 200 198 199 203 201 205 220 223 222 224
234 244 236 99 18 301 246 200 62 356 173 155 177 204 153 150 164 147 137 137 137 148 149 155 161 207 207 208 210 220 214 212 213 216 214 213 210 213 205 209 218 226 220 222
244 243 152 30 11 258 234 36 18 278 194 194 218 280 148 164 161 152 150 144 145 158 156 154 181 205 213 224 236 243 237 220 211 219 221 218 217 214 207 212 213 224 220 214
245 243 156 31 27 359 20 13 6 335 240 221 217 106 141 153 156 160 160 164 172 169 154 146 175 208 226 243 260 243 233 230 220 219 227 210 212 215 216 222 213 212 209 215
338 28 50 49 44 31 17 12 10 351 332 175 104 139 154 155 156 162 169 176 185 182 163 160 188 219 238 273 277 251 225 232 233 226 223 218 215 208 208 215 226 222 215 217
303 87 53 59 52 35 25 18 5 2 5 52 52 98 157 153 154 164 169 180 190 189 188 186 213 240 250 268 265 249 240 232 233 223 214 208 221 220 216 216 231 233 231 233
218 40 35 49 27 16 10 12 19 36 38 42 83 105 119 137 144 154 159 179 200 195 195 203 215 243 249 261 256 249 249 247 240 232 212 208 210 234 239 227 264 262 257 253
357 13 329 336 340 347 355 356 359 19 31 28 51 60 85 127 139 154 161 166 186 190 197 205 220 246 262 262 261 256 255 254 250 242 232 223 210 198 199 225 185 220 274 282
326 321 318 312 315 332 342 348 354 5 26 24 24 32 46 66 100 112 130 149 186 205 210 224 237 263 286 279 270 264 265 264 263 255 245 240 225 221 214 205 206 214 228 233
338 330 320 337 342 345 347 354 9 21 21 31 44 41 48 57 65 58 336 222 235 249 246 249 258 277 288 280 277 274 268 253 254 253 251 247 240 235 230 224 217 211 211 214
341 332 322 326 336 352 357 3 18 26 20 30 52 44 47 53 39 6 324 287 263 255 262 271 280 292 294 282 276 276 272 263 258 262 255 249 243 244 242 236 234 228 216 192
331 341 346 352 356 356 349 350 348 348 351 356 7 9 339 331 319 295 307 276 260 267 284 293 295 288 282 277 275 269 266 263 252 255 250 246 242 242 244 244 242 237 234 222
331 339 344 342 339 336 332 334 329 325 329 335 334 317 287 274 265 273 287 289 280 271 273 279 288 289 283 274 271 271 267 251 239 249 248 246 245 246 246 246 248 247 244 218
319 317 317 318 321 320 321 326 322 319 319 316 315 309 293 276 283 287 283 275 273 275 285 286 288 287 282 278 277 278 270 258 248 251 258 255 256 251 246 245 248 251 254 206
340 329 321 317 316 312 311 316 321 321 318 310 302 304 296 287 286 289 284 270 267 276 289 296 295 276 278 282 282 266 263 257 253 251 254 249 250 256 254 250 249 251 255 252
342 332 325 320 321 317 314 317 320 317 316 315 311 306 302 300 292 282 275 270 271 290 291 297 286 280 281 280 283 270 263 260 258 256 251 251 251 256 258 260 259 255 251 246
337 333 330 325 321 318 315 315 311 309 312 310 307 304 300 296 291 286 278 277 294 310 298 272 266 278 287 308 279 273 263 258 260 259 256 249 249 255 257 256 256 254 249 244
330 327 322 318 316 315 316 308 302 302 307 307 307 305 299 290 281 274 274 292 302 326 288 269 277 327 328 305 278 276 273 265 260 259 260 259 254 252 253 257 255 255 257 254
321 319 316 313 310 308 305 301 301 297 295 297 296 296 293 292 287 281 278 293 303 314 286 295 344 348 309 283 280 279 277 274 270 264 260 259 257 253 249 248 250 251 248 250
321 319 316 315 312 307 308 308 300 292 291 292 293 293 289 282 273 272 285 244 248 277 285 330 271 272 270 271 278 281 281 277 274 273 269 263 259 259 256 253 254 255 250 248
325 325 325 320 311 305 304 300 290 280 281 286 294 292 283 281 284 288 291 285 271 267 285 241 202 240 262 277 283 285 283 287 294 292 281 275 271 266 264 261 261 266 269 258
324 319 323 319 317 310 305 303 302 302 302 301 302 306 307 298 284 275 264 266 270 269 275 282 267 252 268 278 286 293 296 289 274 270 276 278 281 283 278 272 264 261 268 275
321 321 316 316 318 321 319 316 313 313 316 316 316 315 310 302 290 287 290 286 284 283 286 287 282 278 281 284 285 285 287 294 295 291 289 286 282 279 276 270 265 263 262 261